N8VDS-10 Weather Reports


Display with metric or nautical units.
time (UTC)temp
F
wind
direction
speed
MPH
gust
MPH
rain 1hr
in
rain 24hr
in
rain mn
in
humidity
%
barometer
mb
20260509011907 57 204 0.0 0.0 0.00 0.00 0.00 29 1010.7
20260509011404 58 220 0.0 0.0 0.00 0.00 0.00 29 1010.5
20260509010902 58 211 1.0 2.0 0.00 0.00 0.00 29 1010.5
20260509010359 58 206 0.0 0.0 0.00 0.00 0.00 30 1010.3
20260509005856 59 267 4.0 5.0 0.00 0.00 0.00 29 1010.3
20260509005355 59 215 5.0 7.0 0.00 0.00 0.00 29 1010.4
20260509004855 59 281 2.0 3.0 0.00 0.00 0.00 30 1010.2
20260509004351 60 243 2.0 3.0 0.00 0.00 0.00 29 1010.4
20260509003849 60 276 3.0 5.0 0.00 0.00 0.00 29 1010.1
20260509003346 60 279 2.0 3.0 0.00 0.00 0.00 29 1010.2
20260509002843 60 223 2.0 3.0 0.00 0.00 0.00 29 1010.1
20260509002341 60 259 4.0 5.0 0.00 0.00 0.00 29 1010.0
20260509001839 60 213 0.0 0.0 0.00 0.00 0.00 30 1009.9
20260509001334 61 206 0.0 0.0 0.00 0.00 0.00 30 1010.1
20260509000832 62 200 0.0 0.0 0.00 0.00 0.00 29 1010.0
20260509000330 62 210 0.0 2.0 0.00 0.00 0.00 28 1010.0
20260508235826 63 220 1.0 2.0 0.00 0.00 0.00 28 1009.9
20260508235323 63 248 2.0 3.0 0.00 0.00 0.00 27 1010.0
20260508234820 63 351 2.0 3.0 0.00 0.00 0.00 27 1009.9
20260508234316 64 263 7.0 9.0 0.00 0.00 0.00 26 1010.0
20260508233815 64 233 4.0 5.0 0.00 0.00 0.00 26 1009.8
20260508233314 64 201 2.0 3.0 0.00 0.00 0.00 27 1009.9
20260508232810 64 336 5.0 9.0 0.00 0.00 0.00 27 1009.7
20260508232307 64 237 7.0 9.0 0.00 0.00 0.00 26 1009.7
20260508231805 64 316 3.0 5.0 0.00 0.00 0.00 26 1009.7
20260508231301 64 268 2.0 5.0 0.00 0.00 0.00 26 1010.0
20260508230758 64 209 1.0 2.0 0.00 0.00 0.00 27 1009.9
20260508230254 64 262 6.0 7.0 0.00 0.00 0.00 26 1009.9
20260508225752 64 347 8.0 14.0 0.00 0.00 0.00 26 1009.9
20260508225248 64 196 2.0 3.0 0.00 0.00 0.00 26 1009.9
20260508224746 64 223 4.0 5.0 0.00 0.00 0.00 26 1010.1
20260508224243 65 313 7.0 10.0 0.00 0.00 0.00 25 1010.1
20260508223741 65 194 3.0 3.0 0.00 0.00 0.00 28 1010.1
20260508223238 65 282 4.0 5.0 0.00 0.00 0.00 27 1010.2
20260508222735 64 246 1.0 2.0 0.00 0.00 0.00 28 1010.3
20260508222233 64 281 13.0 15.0 0.00 0.00 0.00 27 1010.1
20260508221729 65 218 3.0 3.0 0.00 0.00 0.00 27 1010.2
20260508221225 65 180 0.0 2.0 0.00 0.00 0.00 27 1010.1
20260508220721 64 211 1.0 2.0 0.00 0.00 0.00 28 1010.2
20260508220218 64 234 2.0 3.0 0.00 0.00 0.00 27 1010.3
20260508215714 63 235 3.0 3.0 0.00 0.00 0.00 28 1010.7
20260508215211 64 223 4.0 5.0 0.00 0.00 0.00 28 1010.4
20260508214708 63 288 4.0 5.0 0.00 0.00 0.00 27 1010.3
20260508214206 64 183 4.0 5.0 0.00 0.00 0.00 27 1010.5
20260508213702 63 192 2.0 5.0 0.00 0.00 0.00 28 1010.5
20260508213158 64 243 8.0 10.0 0.00 0.00 0.00 28 1010.4
20260508212655 64 276 9.0 12.0 0.00 0.00 0.00 27 1010.5
20260508212151 64 258 9.0 12.0 0.00 0.00 0.00 27 1010.5
20260508211651 63 221 2.0 3.0 0.00 0.00 0.00 27 1010.6
20260508211148 62 287 8.0 10.0 0.00 0.00 0.00 28 1010.6
20260508210645 63 246 4.0 5.0 0.00 0.00 0.00 28 1010.7
20260508210143 63 314 6.0 7.0 0.00 0.00 0.00 27 1011.0
20260508205639 64 241 6.0 9.0 0.00 0.00 0.00 26 1010.5
20260508205136 63 198 4.0 5.0 0.00 0.00 0.00 27 1011.1
20260508204632 63 177 4.0 5.0 0.00 0.00 0.00 27 1011.2
20260508204128 64 277 17.0 22.0 0.00 0.00 0.00 26 1011.0
20260508203625 62 212 3.0 3.0 0.00 0.00 0.00 29 1011.0
20260508203121 62 283 15.0 17.0 0.00 0.00 0.00 26 1011.2
20260508202617 63 282 12.0 14.0 0.00 0.00 0.00 27 1011.4
20260508202114 64 233 6.0 7.0 0.00 0.00 0.00 28 1011.3
20260508201611 64 176 0.0 2.0 0.00 0.00 0.00 27 1011.2
20260508201108 62 214 2.0 2.0 0.00 0.00 0.00 29 1011.5
20260508200605 61 206 1.0 2.0 0.00 0.00 0.00 28 1011.6
20260508200100 62 311 8.0 10.0 0.00 0.00 0.00 27 1011.7
20260508195557 62 303 7.0 10.0 0.00 0.00 0.00 28 1011.8
20260508195053 62 171 5.0 7.0 0.00 0.00 0.00 28 1011.9
20260508194550 62 206 1.0 2.0 0.00 0.00 0.00 30 1011.9
20260508194048 61 192 2.0 3.0 0.00 0.00 0.00 30 1012.1
20260508193544 61 295 9.0 10.0 0.00 0.00 0.00 30 1012.2
20260508193041 61 218 7.0 9.0 0.00 0.00 0.00 29 1012.3
20260508192538 61 217 12.0 19.0 0.00 0.00 0.00 29 1012.2
20260508192035 61 204 2.0 3.0 0.00 0.00 0.00 30 1012.4
20260508191531 60 193 6.0 7.0 0.00 0.00 0.00 29 1012.4
20260508191028 61 240 10.0 12.0 0.00 0.00 0.00 28 1012.5
20260508190525 62 248 4.0 7.0 0.00 0.00 0.00 30 1012.5
20260508190021 60 202 2.0 3.0 0.00 0.00 0.00 33 1012.4
20260508185519 60 244 3.0 3.0 0.00 0.00 0.00 30 1012.5
20260508185017 61 269 6.0 7.0 0.00 0.00 0.00 30 1012.7
20260508184514 60 251 6.0 7.0 0.00 0.00 0.00 32 1012.8
20260508184010 60 264 5.0 5.0 0.00 0.00 0.00 31 1012.6
20260508183507 59 228 3.0 5.0 0.00 0.00 0.00 30 1013.0
20260508183002 59 249 2.0 5.0 0.00 0.00 0.00 33 1013.0
20260508182500 59 226 9.0 10.0 0.00 0.00 0.00 32 1012.8
20260508181955 60 199 2.0 2.0 0.00 0.00 0.00 34 1013.1
20260508181451 60 222 2.0 2.0 0.00 0.00 0.00 32 1013.0
20260508180949 59 163 4.0 7.0 0.00 0.00 0.00 31 1013.0
20260508180446 59 210 9.0 10.0 0.00 0.00 0.00 30 1013.2
20260508175942 59 263 6.0 7.0 0.00 0.00 0.00 31 1013.1
20260508175438 60 308 8.0 12.0 0.00 0.00 0.00 29 1013.3
20260508174936 60 272 7.0 9.0 0.00 0.00 0.00 31 1013.3
20260508174434 58 296 12.0 15.0 0.00 0.00 0.00 30 1013.4
20260508173930 59 166 4.0 5.0 0.00 0.00 0.00 31 1013.5
20260508173428 58 204 0.0 0.0 0.00 0.00 0.00 31 1013.7
20260508172923 58 273 3.0 5.0 0.00 0.00 0.00 33 1013.8
20260508172421 58 256 9.0 12.0 0.00 0.00 0.00 31 1013.6
20260508171917 58 189 0.0 0.0 0.00 0.00 0.00 31 1013.8
20260508171413 58 206 7.0 10.0 0.00 0.00 0.00 31 1013.8
20260508170910 57 278 10.0 10.0 0.00 0.00 0.00 29 1014.0
20260508170408 57 287 10.0 12.0 0.00 0.00 0.00 29 1014.0
20260508165904 58 239 16.0 19.0 0.00 0.00 0.00 28 1013.9
20260508165402 58 177 0.0 2.0 0.00 0.00 0.00 31 1014.2
20260508164857 57 200 1.0 2.0 0.00 0.00 0.00 32 1014.1
20260508164355 57 198 3.0 7.0 0.00 0.00 0.00 29 1014.4
20260508163852 57 190 4.0 9.0 0.00 0.00 0.00 30 1014.4
20260508163351 58 258 12.0 14.0 0.00 0.00 0.00 29 1014.4
20260508162851 57 203 2.0 3.0 0.00 0.00 0.00 29 1014.5
20260508162349 58 349 4.0 5.0 0.00 0.00 0.00 31 1014.5
20260508161846 58 225 3.0 3.0 0.00 0.00 0.00 30 1014.5
20260508161343 59 225 2.0 3.0 0.00 0.00 0.00 30 1014.6
20260508160840 58 193 6.0 9.0 0.00 0.00 0.00 34 1014.6
20260508160339 56 199 6.0 9.0 0.00 0.00 0.00 34 1014.5
20260508155835 57 216 9.0 10.0 0.00 0.00 0.00 30 1014.6
20260508155332 57 216 3.0 3.0 0.00 0.00 0.00 31 1014.8
20260508154828 57 187 2.0 3.0 0.00 0.00 0.00 32 1014.6
20260508154326 57 200 5.0 7.0 0.00 0.00 0.00 32 1014.6
20260508153822 57 218 3.0 3.0 0.00 0.00 0.00 31 1014.8
20260508153321 57 146 0.0 0.0 0.00 0.00 0.00 33 1014.5
20260508152815 56 302 3.0 3.0 0.00 0.00 0.00 34 1014.8
20260508152312 56 182 1.0 2.0 0.00 0.00 0.00 35 1014.7
20260508151808 55 202 2.0 2.0 0.00 0.00 0.00 35 1015.0
20260508151306 55 237 5.0 5.0 0.00 0.00 0.00 34 1014.9
20260508150802 55 218 4.0 5.0 0.00 0.00 0.00 32 1015.1
20260508150259 54 285 4.0 7.0 0.00 0.00 0.00 31 1015.2
20260508145755 54 175 1.0 2.0 0.00 0.00 0.00 33 1015.2
20260508145251 54 264 7.0 9.0 0.00 0.00 0.00 37 1015.3
20260508144748 54 205 2.0 2.0 0.00 0.00 0.00 38 1015.1
20260508144246 54 202 3.0 3.0 0.00 0.00 0.00 41 1015.1
20260508143743 54 189 3.0 5.0 0.00 0.00 0.00 42 1015.1
20260508143240 54 237 4.0 5.0 0.00 0.00 0.00 40 1015.2
20260508142736 54 196 0.0 2.0 0.00 0.00 0.00 44 1015.2
20260508142233 53 181 1.0 2.0 0.00 0.00 0.00 44 1015.2
20260508141730 52 238 2.0 2.0 0.00 0.00 0.00 45 1015.5
20260508141228 52 185 4.0 7.0 0.00 0.00 0.00 45 1015.1
20260508140725 53 52 3.0 3.0 0.00 0.00 0.00 42 1015.3
20260508140221 52 231 5.0 5.0 0.00 0.00 0.00 45 1015.6
20260508135718 53 268 2.0 3.0 0.00 0.00 0.00 42 1015.6
20260508135213 52 186 3.0 5.0 0.00 0.00 0.00 47 1015.7
20260508134709 53 193 3.0 3.0 0.00 0.00 0.00 48 1015.7
20260508134207 51 206 1.0 2.0 0.00 0.00 0.00 50 1015.7
20260508133703 51 224 1.0 2.0 0.00 0.00 0.00 50 1015.1
20260508133201 52 221 2.0 3.0 0.00 0.00 0.00 49 1015.6
20260508132659 52 164 2.0 2.0 0.00 0.00 0.00 48 1015.6
20260508132155 51 184 2.0 3.0 0.00 0.00 0.00 52 1015.7
20260508131651 50 204 0.0 2.0 0.00 0.00 0.00 53 1015.8
20260508131148 51 207 1.0 2.0 0.00 0.00 0.00 52 1015.6
20260508130644 51 193 1.0 2.0 0.00 0.00 0.00 51 1015.8
20260508130142 50 194 2.0 2.0 0.00 0.00 0.00 51 1015.5
20260508125637 49 189 1.0 2.0 0.00 0.00 0.00 52 1015.7
20260508125134 49 163 1.0 2.0 0.00 0.00 0.00 55 1015.8
20260508124632 48 187 2.0 3.0 0.00 0.00 0.00 58 1015.6
20260508124129 48 208 2.0 3.0 0.00 0.00 0.00 60 1015.7
20260508123627 48 185 2.0 3.0 0.00 0.00 0.00 60 1015.7
20260508123124 48 176 3.0 3.0 0.00 0.00 0.00 63 1015.7
20260508122620 47 183 1.0 2.0 0.00 0.00 0.00 64 1015.7
20260508122118 46 197 0.0 0.0 0.00 0.00 0.00 67 1015.3
20260508121616 45 195 2.0 2.0 0.00 0.00 0.00 69 1015.5
20260508121114 44 199 0.0 0.0 0.00 0.00 0.00 71 1015.3
20260508120611 44 193 0.0 0.0 0.00 0.00 0.00 72 1015.2
20260508120109 42 194 0.0 0.0 0.00 0.00 0.00 75 1015.1
20260508115606 42 197 0.0 0.0 0.00 0.00 0.00 77 1015.2
20260508115103 41 197 0.0 0.0 0.00 0.00 0.00 79 1015.0
20260508114600 39 197 0.0 0.0 0.00 0.00 0.00 85 1014.9
20260508114056 39 199 0.0 0.0 0.00 0.00 0.00 86 1014.8
20260508113553 39 196 0.0 0.0 0.00 0.00 0.00 88 1014.8
20260508113051 39 197 0.0 0.0 0.00 0.00 0.00 91 1014.9
20260508112547 39 197 0.0 0.0 0.00 0.00 0.00 92 1014.9
20260508112044 39 197 0.0 0.0 0.00 0.00 0.00 93 1015.0
20260508111541 37 197 0.0 0.0 0.00 0.00 0.00 94 1014.8
20260508111038 36 197 0.0 0.0 0.00 0.00 0.00 94 1014.9
20260508110536 35 198 0.0 0.0 0.00 0.00 0.00 94 1014.8
20260508110032 35 198 0.0 0.0 0.00 0.00 0.00 94 1014.9
20260508105527 35 198 0.0 0.0 0.00 0.00 0.00 94 1015.0
20260508105025 35 198 0.0 0.0 0.00 0.00 0.00 94 1014.8
20260508104523 34 198 0.0 0.0 0.00 0.00 0.00 93 1014.8
20260508104019 34 198 0.0 0.0 0.00 0.00 0.00 93 1014.7
20260508103516 35 198 0.0 0.0 0.00 0.00 0.00 93 1014.8
20260508103013 35 198 0.0 0.0 0.00 0.00 0.00 93 1014.9
20260508102511 34 198 0.0 0.0 0.00 0.00 0.00 93 1014.7
20260508102008 34 198 0.0 0.0 0.00 0.00 0.00 92 1014.9
20260508101506 35 198 0.0 0.0 0.00 0.00 0.00 92 1014.8
20260508101002 35 198 0.0 0.0 0.00 0.00 0.00 92 1014.7
20260508100501 35 205 0.0 0.0 0.00 0.00 0.00 91 1014.8
20260508095957 35 205 0.0 0.0 0.00 0.00 0.00 91 1014.7
20260508095454 35 205 0.0 0.0 0.00 0.00 0.00 91 1014.8
20260508094951 36 206 0.0 0.0 0.00 0.00 0.00 91 1014.7
20260508094448 36 206 0.0 0.0 0.00 0.00 0.00 90 1014.9
20260508093944 36 201 0.0 0.0 0.00 0.00 0.00 90 1014.9
20260508093442 36 194 0.0 0.0 0.00 0.00 0.00 90 1014.8
20260508092940 36 193 0.0 0.0 0.00 0.00 0.00 90 1014.9
20260508092437 36 193 0.0 0.0 0.00 0.00 0.00 90 1015.0
20260508091936 36 193 0.0 0.0 0.00 0.00 0.00 89 1014.8
20260508091432 36 194 0.0 0.0 0.00 0.00 0.00 89 1014.7
20260508090929 37 194 0.0 0.0 0.00 0.00 0.00 88 1015.0
20260508090428 37 194 0.0 0.0 0.00 0.00 0.00 88 1014.9
20260508085923 37 194 0.0 0.0 0.00 0.00 0.00 88 1015.0
20260508085420 37 194 0.0 0.0 0.00 0.00 0.00 87 1015.0
20260508084917 37 194 0.0 0.0 0.00 0.00 0.00 87 1014.9
20260508084414 37 194 0.0 0.0 0.00 0.00 0.00 87 1015.0
20260508083912 38 193 0.0 0.0 0.00 0.00 0.00 86 1015.1
20260508083409 38 193 0.0 0.0 0.00 0.00 0.00 86 1015.0
20260508082908 38 193 0.0 0.0 0.00 0.00 0.00 85 1015.2
20260508082406 38 193 0.0 0.0 0.00 0.00 0.00 84 1015.0
20260508081903 39 193 0.0 0.0 0.00 0.00 0.00 84 1015.0
20260508081400 39 193 0.0 0.0 0.00 0.00 0.00 83 1015.1
20260508080857 39 193 0.0 0.0 0.00 0.00 0.00 82 1015.1
20260508080355 39 193 0.0 0.0 0.00 0.00 0.00 82 1015.0
20260508075851 40 193 0.0 0.0 0.00 0.00 0.00 81 1015.2
20260508075348 40 193 0.0 0.0 0.00 0.00 0.00 80 1015.1
20260508074846 40 193 0.0 0.0 0.00 0.00 0.00 80 1015.0
20260508074343 40 203 0.0 0.0 0.00 0.00 0.00 78 1015.0
20260508073840 41 204 0.0 0.0 0.00 0.00 0.00 78 1015.3
20260508073338 41 204 0.0 0.0 0.00 0.00 0.00 77 1015.0
20260508072834 41 207 0.0 0.0 0.00 0.00 0.00 76 1015.0
20260508072330 42 197 0.0 0.0 0.00 0.00 0.00 75 1014.9
20260508071828 42 197 0.0 0.0 0.00 0.00 0.00 75 1014.8
20260508071326 42 232 0.0 2.0 0.00 0.00 0.00 74 1014.8
20260508070824 42 195 0.0 0.0 0.00 0.00 0.00 73 1014.9
20260508070322 43 203 0.0 0.0 0.00 0.00 0.00 73 1014.9
20260508065819 43 218 0.0 0.0 0.00 0.00 0.00 72 1014.9
20260508065317 44 190 0.0 0.0 0.00 0.00 0.00 71 1014.7
20260508064814 44 183 2.0 3.0 0.00 0.00 0.00 71 1015.0
20260508064312 44 188 0.0 0.0 0.00 0.00 0.00 71 1014.9
20260508063809 44 190 0.0 2.0 0.00 0.00 0.00 70 1015.0
20260508063307 44 191 0.0 0.0 0.00 0.00 0.00 71 1015.0
20260508062804 44 194 0.0 0.0 0.00 0.00 0.00 70 1015.1
20260508062305 44 195 0.0 0.0 0.00 0.00 0.00 72 1015.2
20260508061758 44 197 0.0 0.0 0.00 0.00 0.00 71 1015.1
20260508061255 44 183 2.0 3.0 0.00 0.00 0.00 71 1015.2
20260508060752 44 200 0.0 0.0 0.00 0.00 0.00 71 1015.3
20260508060250 44 226 0.0 0.0 0.00 0.00 0.00 71 1015.5
20260508055745 44 194 0.0 0.0 0.00 0.00 0.00 69 1015.5
20260508055243 44 181 0.0 0.0 0.00 0.00 0.00 68 1015.5
20260508054739 44 193 0.0 0.0 0.00 0.00 0.00 70 1015.7
20260508054237 44 204 0.0 0.0 0.00 0.00 0.00 70 1015.7
20260508053734 44 194 0.0 0.0 0.00 0.00 0.00 68 1015.7
20260508053231 44 184 0.0 0.0 0.00 0.00 0.00 68 1015.3
20260508052728 45 180 0.0 0.0 0.00 0.00 0.00 67 1015.3
20260508052225 45 202 0.0 0.0 0.00 0.00 0.00 67 1015.7
20260508051721 45 216 0.0 0.0 0.00 0.00 0.00 68 1015.8
20260508051217 45 214 0.0 0.0 0.00 0.00 0.00 66 1015.3
20260508050713 45 186 0.0 0.0 0.00 0.00 0.00 64 1015.2
20260508050211 45 187 0.0 0.0 0.00 0.00 0.00 65 1015.2
20260508045706 45 186 0.0 0.0 0.00 0.00 0.00 65 1015.2
20260508045204 45 194 0.0 0.0 0.00 0.00 0.00 63 1015.3
20260508044701 45 213 0.0 0.0 0.00 0.00 0.00 65 1015.7
20260508044158 45 224 0.0 0.0 0.00 0.00 0.00 66 1015.6
20260508043654 45 279 0.0 0.0 0.00 0.00 0.00 65 1015.5
20260508043152 45 194 0.0 0.0 0.00 0.00 0.00 65 1015.2
20260508042648 45 181 0.0 0.0 0.00 0.00 0.00 64 1015.2
20260508042146 45 200 0.0 0.0 0.00 0.00 0.00 64 1015.7
20260508041642 45 208 0.0 0.0 0.00 0.00 0.00 64 1015.8
20260508041139 45 205 0.0 0.0 0.00 0.00 0.00 62 1015.8
20260508040635 45 193 0.0 0.0 0.00 0.00 0.00 62 1015.6
20260508040133 45 192 0.0 0.0 0.00 0.00 0.00 62 1015.5
20260508035630 45 193 0.0 0.0 0.00 0.00 0.00 61 1015.3
20260508035127 45 199 0.0 0.0 0.00 0.00 0.00 61 1015.6
20260508034624 45 220 0.0 0.0 0.00 0.00 0.00 61 1015.3
20260508034121 45 208 0.0 0.0 0.00 0.00 0.00 60 1015.5
20260508033618 45 219 0.0 0.0 0.00 0.00 0.00 60 1015.5
20260508033117 45 199 0.0 0.0 0.00 0.00 0.00 59 1015.3
20260508032613 45 199 0.0 0.0 0.00 0.00 0.00 59 1015.1
20260508032110 46 199 0.0 0.0 0.00 0.00 0.00 58 1015.2
20260508031607 45 197 0.0 0.0 0.00 0.00 0.00 58 1015.3
20260508031103 46 195 0.0 0.0 0.00 0.00 0.00 57 1015.5
20260508030600 46 208 0.0 0.0 0.00 0.00 0.00 57 1015.6
20260508030058 46 201 0.0 0.0 0.00 0.00 0.00 57 1015.5
20260508025553 46 199 0.0 0.0 0.00 0.00 0.00 55 1015.7
20260508025051 47 184 0.0 0.0 0.00 0.00 0.00 55 1015.2
20260508024547 47 211 0.0 0.0 0.00 0.00 0.00 54 1015.7
20260508024044 47 208 0.0 0.0 0.00 0.00 0.00 54 1015.3
20260508023540 47 223 0.0 0.0 0.00 0.00 0.00 54 1015.6
20260508023038 47 269 0.0 0.0 0.00 0.00 0.00 56 1015.5
20260508022534 47 221 0.0 0.0 0.00 0.00 0.00 56 1015.5
20260508022031 47 202 0.0 0.0 0.00 0.00 0.00 56 1015.3
20260508021526 47 202 0.0 0.0 0.00 0.00 0.00 55 1015.3
20260508021022 47 205 0.0 0.0 0.00 0.00 0.00 55 1015.6
20260508020520 47 219 0.0 0.0 0.00 0.00 0.00 56 1015.5
20260508020018 47 194 0.0 0.0 0.00 0.00 0.00 58 1015.3
20260508015515 47 193 0.0 0.0 0.00 0.00 0.00 57 1015.3
20260508015012 46 193 0.0 0.0 0.00 0.00 0.00 57 1015.0
20260508014508 47 193 0.0 0.0 0.00 0.00 0.00 56 1014.8
20260508014005 47 196 0.0 0.0 0.00 0.00 0.00 55 1015.0
20260508013501 47 205 0.0 0.0 0.00 0.00 0.00 55 1014.8
20260508012958 47 197 0.0 0.0 0.00 0.00 0.00 56 1014.9
20260508012455 48 197 0.0 0.0 0.00 0.00 0.00 55 1014.9
20260508011952 48 219 0.0 0.0 0.00 0.00 0.00 54 1014.8